Location: Alvediston
(51.0078°N, 2.0364°W)
Time: 19:55:03
(UTC+00:00)

Meteor 1-14 Rocket - Pass Details

Date: 27 February 2020
Orbit: 834 x 918 km, 81.3° (Epoch: 05 April)

Event Time Altitude Azimuth Distance (km) Brightness Sun altitude
Rises 18:50:46 0° 171° (S) 3,370 7.2 -11.2°
Reaches altitude 10° 18:53:14 10° 166° (SSE) 2,442 6.5 -11.5°
Maximum altitude 18:58:29 47° 94° (E) 1,101 4.4 -12.4°
Drops below altitude 10° 19:03:50 10° 22° (NNE) 2,483 6.5 -13.2°
Sets 19:06:20 0° 17° (NNE) 3,433 7.2 -13.6°
